Weather in Chervonohryhorivka

Ukraine / Dnipropetrovsk Region     47°37′58″N   34°32′03″E
temp.,
°C
wind,
m/s
gust,
m/s
humid.,
%
clouds,
%
prec.,
mm/h
press.,
hPa
HPBL,
m
28 june, tue
tue2800:00+21ne4106833 0.0 1016207
03:00+19ne496661 0.0 1016167
06:00+19ne51066100 0.0 1016229
09:00+25ne6847100 0.0 1016702
12:00+29ne6733100 0.0 10161738
15:00+31ne672899 0.0 10142131
18:00+30ne5735100 0.0 10142116
21:00+24nne44588 0.3 101541
29 june, wed
wed2900:00+22ne487724 0.3 1015147
03:00+21ne49845 0.3 1015169
06:00+21ne510835 0.0 1015225
09:00+27ene67555 0.0 1015724
12:00+31ene663733 0.0 10152186
15:00+32ne653397 0.0 10142971
18:00+30ene683851 0.1 1014785
21:00+25ene611500 0.1 1014273
30 june, thu
thu3000:00+22ene5115519 0.0 1016242
03:00+20ene365893 0.0 1015113
06:00+19ene35666 0.0 1015136
09:00+23ese235493 0.0 1016391
12:00+25ne4548100 0.0 1016544
15:00+21ene71055100 0.1 1016367
18:00+22ene584976 0.0 1016396
21:00+22ne365095 0.0 1017143
1 july, fri
fri100:00+20ene375478 0.0 1017171
03:00+17ne47620 0.0 1018109
06:00+16ne48640 0.0 1018159
09:00+24ene56420 0.0 1018769
12:00+27ne56320 0.0 10181980
15:00+28ne66280 0.0 10172272
18:00+28ne66310 0.0 10172145
21:00+22ne46490 0.0 101881
2 july, sat
sat200:00+19ne45560 0.0 101970
03:00+17ene47630 0.0 1020107
06:00+17ene47610 0.0 1020139
09:00+24ene45410 0.0 1021781
12:00+28ene55300 0.0 10202143
15:00+29ene44272 0.0 10192385
18:00+29ne43280 0.0 10192374
21:00+22ene47435 0.0 101994